Location: �itdibi
(36.7910°N, 30.4245°E)
Time: 02:27:37
(UTC+00:00)

Daily predictions for brighter satellites

Satellite Brightness Start Highest point End
(mag) Time Altitude Azimuth Time Altitude Azimuth Time Altitude Azimuth
ATLAS 2AS CENTAUR R/B 4.0 01:25:46 40° ENE 01:25:46 40° ENE 01:31:19 10° NE
CZ-3 R/B 3.8 01:57:57 50° WSW 02:04:34 64° S 02:14:00 10° ESE
Cosmos 2322 Rocket 3.8 02:08:43 15° SSE 02:12:27 31° ESE 02:17:23 10° NE
Cosmos 2263 Rocket 3.7 02:16:07 26° NNE 02:17:59 32° ENE 02:23:00 10° ESE
Cosmos 2344 4.4 02:21:09 35° N 02:21:09 35° N 02:26:19 10° NNE
ATLAS 3B R/B 4.1 02:22:24 21° N 02:25:54 33° NE 02:32:01 10° ESE
NOSS 3-2 (C) 4.3 02:27:33 39° NNW 02:30:46 67° NE 02:39:14 10° SE
Cosmos 1295 Rocket 4.5 02:31:51 41° N 02:34:09 75° E 02:40:13 10° SSE
Meteor 1-21 Rocket 4.4 02:36:45 56° N 02:38:03 78° E 02:43:58 10° SSE
NOSS 3-4 (A) 3.6 02:40:59 58° N 02:40:59 58° N 02:46:10 10° NNE
NOSS 3-4 (C) 3.5 02:41:02 59° N 02:41:02 59° N 02:46:17 10° NNE
Lacrosse 5 2.4 02:42:05 51° NE 02:42:05 51° NE 02:45:53 10° NE
CENTAUR R/B 3.5 02:39:31 26° NNW 02:44:41 66° NE 02:53:23 10° SE
CZ-3 Stage 3 3.7 02:45:42 38° SSW 02:45:42 38° SSW 02:48:45 10° SE
Meteor 2-17 Rocket 4.2 02:46:59 51° NNW 02:48:38 83° W 02:54:40 10° S
NOSS 3-2 (A) 4.0 02:46:47 53° WNW 02:48:47 70° WSW 02:57:16 10° SSE
STARLINK 1022 4.5 02:52:42 46° SE 02:52:42 46° SE 02:56:37 10° ENE
Gbstr 26 Del rocket 4.3 02:53:09 54° NW 02:53:50 56° NNW 03:01:30 10° NE
SL-16 R/B 2.1 02:53:12 42° SSW 02:55:12 89° ESE 03:00:55 10° NNE
Cosmos 2360 Rocket 3.6 02:52:06 10° S 02:57:15 37° ESE 03:02:24 10° NE
STARLINK 1042 4.2 02:57:28 51° SE 02:57:35 51° SE 03:01:36 10° ENE
Cosmos 962 Rocket 4.4 02:51:33 10° N 02:57:54 85° W 03:04:16 10° S
SJ-12 4.4 02:55:38 10° NNE 02:59:40 57° E 03:03:41 10° S
STARLINK 1056 4.0 03:02:16 56° SSE 03:02:33 58° SE 03:06:38 10° NE
Cosmos 158 Rocket 3.8 03:00:52 25° SSW 03:03:41 84° ESE 03:08:38 10° NNE
Cosmos 1980 Rocket 4.2 03:07:20 14° NNW 03:07:20 14° NNW 03:08:16 10° N
Cosmos 972 Rocket 4.0 03:03:07 58° WNW 03:03:55 67° WSW 03:09:07 10° S
Abrixas rocket 4.0 03:06:25 27° SE 03:06:25 27° SE 03:07:56 10° SE
STARLINK 1054 3.9 03:07:00 58° S 03:07:29 64° SE 03:11:36 10° NE
STARLINK 1062 3.7 03:11:46 57° SSW 03:12:27 71° SE 03:16:34 10° NE
CZ-4B R/B 4.4 03:09:27 10° NNE 03:14:38 42° E 03:19:41 10° S
ATLAS 2AS CENTAUR R/B 3.4 03:13:16 37° WNW 03:14:50 40° NW 03:22:17 10° NNE
Meteor 1-16 Rocket 4.3 03:10:01 10° SSW 03:15:51 60° W 03:21:37 10° N
STARLINK 1053 3.6 03:16:36 54° SSW 03:17:29 80° SE 03:21:37 10° NE
SKYMED 2 3.5 03:15:35 10° SSE 03:19:54 89° E 03:23:18 17° NNW
Cosmos 1953 Rocket 3.4 03:18:43 33° NNW 03:20:36 73° W 03:24:56 10° S
STARLINK 1061 3.5 03:21:24 49° SW 03:22:27 88° SE 03:26:36 10° NE
USA 32 3.9 03:18:04 10° N 03:23:18 71° W 03:28:30 10° S
Genesis I 3.0 03:24:34 63° NW 03:25:05 78° WSW 03:28:52 10° SSE
COSMOS 2455 4.5 03:27:17 17° NNW 03:27:17 17° NNW 03:29:45 10° N
SL-8 Rocket 3.8 03:19:32 10° N 03:25:43 78° W 03:31:51 10° S
STARLINK 1067 3.5 03:26:09 44° SW 03:27:25 84° NW 03:31:34 10° NE
Cosmos 1908 3.2 03:24:41 10° SSW 03:28:31 54° W 03:32:22 10° N
USA 238 DEB 4.5 03:27:04 30° W 03:28:37 33° WSW 03:35:07 10° S
USA 238 4.5 03:27:07 31° W 03:28:44 34° WSW 03:35:15 10° S
Cosmos 2181 Rocket 4.0 03:24:34 10° SSW 03:30:37 55° W 03:36:49 10° N
STARLINK 1058 3.5 03:30:53 39° WSW 03:32:20 76° NW 03:36:29 10° NE
Meteor 2-10 4.5 03:27:29 10° SW 03:32:35 39° WNW 03:37:34 10° N
STARLINK-60 3.9 03:32:18 33° N 03:33:20 45° NE 03:36:33 10° ESE
Cosmos 1680 Rocket 4.2 03:34:01 32° WNW 03:34:07 32° WNW 03:38:52 10° N
Cosmos 1328 3.8 03:34:26 29° NNW 03:36:12 54° W 03:40:03 10° S
STARLINK 1043 3.5 03:35:40 34° WSW 03:37:19 69° NW 03:41:28 10° NE
METEOR-M 4.1 03:35:23 10° N 03:40:38 59° WNW 03:45:53 10° SSW
ALOS 2.4 03:37:19 10° N 03:41:49 49° WNW 03:46:18 10° SSW
STARLINK 1065 3.6 03:40:27 30° WSW 03:42:18 62° NW 03:46:25 10° NE
PAYLOAD B 4.2 03:37:09 10° N 03:42:46 77° WNW 03:48:20 10° SSW
RESURS DK-1 2.6 03:40:55 21° SW 03:43:18 46° WNW 03:47:18 10° N
Cosmos 1371 Rocket 3.9 03:39:43 10° NNW 03:45:02 75° WSW 03:50:22 10° S
Cosmos 2341 Rocket 4.5 03:41:16 10° NNW 03:46:51 36° W 03:52:24 10° SSW
STARLINK 1063 3.7 03:45:12 26° WSW 03:47:17 57° NW 03:51:22 10° NE
BREEZE M DEB (TANK) 4.2 03:47:00 17° NNW 03:47:36 18° N 03:50:51 10° NE
STARLINK 1064 3.8 03:49:58 23° WSW 03:52:15 51° NW 03:56:19 10° NE
NOAA 6 4.0 03:47:10 10° N 03:52:22 77° WNW 03:57:32 10° SSW
Cosmos 2058 Rocket 3.7 03:52:22 10° SW 03:56:15 31° WNW 04:00:08 10° NNW
Cosmos 2322 Rocket 2.8 03:51:19 10° SW 03:56:22 33° WNW 04:01:29 10° N
STARLINK 1041 3.9 03:54:46 21° WSW 03:57:16 47° NW 04:01:17 10° NE
Okean O Rocket 1.5 03:53:17 10° N 03:57:41 65° WNW 04:02:02 10° SSW
Nadezhda 3 Rocket 4.2 03:52:38 10° S 03:58:46 78° E 04:04:58 10° N
DMSP B5D1-3 4.5 03:54:11 10° SSE 03:59:18 86° WSW 04:04:25 10° NNW
Meteor 1-11 4.3 03:55:54 10° NNW 04:01:21 53° W 04:06:51 10° S
Cosmos 2263 Rocket 2.9 03:57:53 15° NW 04:01:49 32° WSW 04:06:48 10° SSW
STARLINK 1038 4.0 03:59:32 18° WSW 04:02:14 43° NW 04:06:12 10° NE
Cosmos 1703 4.3 04:00:46 18° NW 04:02:39 25° W 04:05:54 10° SW
Alouette 2 Rocket 3.4 04:00:18 10° S 04:05:04 88° W 04:08:45 10° N
Cosmos 482 Debris 3.3 04:05:08 10° SW 04:07:11 50° SE 04:08:56 10° ENE
STARLINK 1046 4.1 04:04:21 16° W 04:07:15 39° NW 04:11:10 10° NE
COSMO-SKYMED 1 3.6 04:04:33 10° SSW 04:08:07 25° W 04:11:41 10° NW
Cosmos 2218 Rocket 4.4 04:04:15 10° NNW 04:10:06 40° W 04:15:53 10° SSW
STARLINK 1039 4.3 04:09:07 14° W 04:12:13 36° NW 04:16:05 10° NNE
Cosmos 1624 Rocket 4.3 04:07:16 10° NNW 04:12:14 46° WSW 04:17:09 10° S
Cosmos 1844 Rocket 3.3 04:07:37 10° NNW 04:13:12 59° ENE 04:18:46 10° SE
ADEOS Rocket 2.9 04:07:51 10° SSE 04:13:20 83° ENE 04:19:04 10° NNW
Cosmos 1900 4.3 04:09:25 10° NNW 04:14:18 79° WSW 04:19:13 10° SSE
ATLAS 3B R/B 3.0 04:10:16 10° NW 04:16:45 49° WSW 04:23:26 10° S
STARLINK 1045 4.4 04:13:53 12° W 04:17:15 33° NW 04:21:01 10° NNE
Cosmos 2333 Rocket 2.8 04:12:22 10° S 04:18:02 63° ESE 04:23:45 10° NNE
Meteor 2-12 Rocket 4.5 04:13:24 10° NNW 04:19:24 62° W 04:25:26 10° S
Cosmos 1174 3.6 04:15:16 10° SSW 04:19:34 74° WNW 04:23:04 10° NNE
Cosmos 1437 2.4 04:16:47 10° NNW 04:19:49 77° W 04:22:50 10° S
Cosmos 1340 Rocket 2.7 04:18:20 10° SSW 04:22:13 67° W 04:26:07 10° N
Cosmos 1048 Rocket 4.1 04:18:53 10° SSW 04:24:11 84° ESE 04:29:26 10° NNE
Lacrosse 5 3.4 04:21:19 11° WNW 04:24:25 18° NNW 04:27:53 10° NNE
USA 215 3.5 04:19:34 10° SE 04:26:04 74° NE 04:32:35 10° NW
Lacrosse 5 rocket 3.9 04:25:27 10° N 04:27:58 15° NNE 04:30:25 10° ENE
Cosmos 2056 Rocket 4.2 04:23:20 10° NW 04:28:12 34° W 04:33:01 10° SSW
Cosmos 2084 Rocket 3.4 04:28:42 10° SW 04:33:01 74° WNW 04:37:26 10° NNE
Milstar 3 4.3 04:26:09 10° SW 04:34:27 37° S 04:40:36 10° ESE
CENTAUR R/B 4.1 04:28:05 10° NW 04:35:05 30° WSW 04:42:17 10° SSW
SMAP 3.1 04:32:47 10° N 04:37:23 61° WNW 04:41:58 10° SSW
FALCON 9 DEB 3.3 04:34:15 10° NW 04:37:44 65° SW 04:41:12 10° SE
Cosmos 2239 Rocket 4.5 04:31:51 10° N 04:38:05 77° W 04:44:15 10° S
Milstar 3 Cent rocket 4.1 04:25:26 10° WSW 04:39:21 52° S 04:46:07 10° ESE
Feng Yun 1-1 Rocket 4.4 04:34:04 10° NNE 04:39:59 83° WNW 04:45:44 10° SSW
SL-16 R/B 3.9 04:37:33 10° WNW 04:40:05 13° NW 04:42:38 10° NNW
Cosmos 2360 Rocket 3.0 04:36:26 10° WSW 04:41:15 28° WNW 04:46:07 10° N
